SL-8 R/B, 2802

Orbit data source: Space-Track

SL-8 R/B, 2802 is space debris in LEO originally from a launch on Mon, 15 May 1967 UTC launched from the Plesetsk Missile And Space Complex (PKMTR). Debris objects in space refer to the collection of defunct objects orbiting the Earth. Examples of debris include non-operational satellites, rocket bodies, and fragments generated from explosions, collisions, or faulty payload assembly.

Loading next visibility...
Identifier
2802, 1967-045B
Orbit
LEO
Last TLE update
14 hours ago
Origin
Manufacturer
Yuzhnoe
Mission
Spacecraft
Bus & Motor
S3, Unknown motor
Mass
1,434 kg wet, 1,434 kg dry
Launch date (UTC)
1967-05-15 (58 years ago)
Launch vehicle
Unknown
Launch site
Plesetsk Missile And Space Complex (PKMTR)
Object type
Payload
Rocket body
Debris
Shape & HBR
Cyl, 4.2 m
Radar Cross Section
10.179 m², Large (>1 m²)

Expand to show TLE details & history

TLE from 14 hours ago
0 SL-8 R/B
1 02802U 67045B   25128.63734709  .00000328  00000-0  98827-4 0  9992
2 02802  74.0119 197.6542 0065767 278.4843  80.8865 14.45354988 44944
Epoch: 2025-05-08T15:17Z
Definitive object data (Epoch: 2025-05-08T15:17:46.788Z)
Latitude
0.00002°
Longitude
101.50427°
Altitude
736.365 km
Speed
7.491 km/s
True Right ascension
13h 10m 37s
True Declination
0° 00' 00"
Sunlit
Object was in full shadow at TLE epoch
Visualization TLE readout
Latitude
59.5454°
Longitude
-108.56466°
Altitude
794.822 km
Speed
7.439 km/s
Apparent Right ascension
00h 22m 45s
Apparent Declination
14° 14' 44"
Sunlit
Object is in daylight
Visualization observer readout
Local Sidereal Time
13:16:13
Azimuth
15.761° NNE
Elevation
-34.428°
Doppler factor
1
Orbital elements
Apogee altitude
785.28 km
Perigee altitude
691.672 km
Semi-major axis
7,116.613 km
Eccentricity
0.0065767
Inclination
74.0119°
RAAN
197.6542°
Arg. of periapsis
278.4843°
True anomaly
81.63157°
Mean anomaly
80.8865°
Eccentric anomaly
81.25894°
Mean motion
3.61521 °/min
BSTAR
0.000098827
Orbital period
99.58 mins
Loading maneuver chart data...
Loading SW <> Apogee altitude chart data...
Loading historical data...
Loading historical data...
Loading historical data...
Loading historical data...
Loading historical data...
Loading historical data...
Loading historical data...
Other satellites on launch #45 in the year 1967 (1967-05-15 UTC)

SL-8 R/B Visibility forecast

Observer location: undefined°, undefined°

Span
Click to sort rows by Start time (UTC) header in descending order
Start Az.
Max El. time (UTC)
Max El. Az.
Max El.
End time (UTC)
End Az.
9 mins2025-05-09 06:22:36.417Z223.922° SW2025-05-09 06:26:36.417Z278.904° WNW34.19°2025-05-09 06:31:36.417Z4.281° NNE
7 mins2025-05-09 15:07:36.417Z9.489° NNE2025-05-09 15:10:36.417Z60.008° ENE29.699°2025-05-09 15:14:36.417Z123.876° SE
6 mins2025-05-09 16:49:36.417Z301.476° NW2025-05-09 16:51:36.417Z270.161° WNW24.631°2025-05-09 16:55:36.417Z209.769° SW
|